Theta_e
332 335 328 319 315 317 318 318 315 313 313 314 314 312 313 315 318 317 317 318 316 315 313 310 308 307 307 308 309 312 327 339 343 344 344 343 342 342 341 342 342 337 335
333 336 329 320 320 320 320 318 317 315 314 315 316 315 314 315 319 318 316 316 318 316 317 319 312 308 307 307 308 310 312 325 339 343 344 343 343 343 343 340 340 338 334
335 335 329 326 324 325 324 321 320 318 316 314 315 316 316 316 320 318 316 315 318 320 318 321 321 313 308 307 310 310 311 312 327 340 344 344 344 343 342 340 340 341 338
326 327 328 326 326 325 325 322 321 319 318 316 314 316 317 317 317 315 315 314 315 319 322 322 324 322 315 309 318 326 313 311 314 334 341 342 342 343 342 342 341 340 340
324 321 322 324 326 325 324 322 320 320 318 316 316 321 323 319 320 317 316 314 315 325 327 327 330 328 323 313 317 326 326 315 312 323 338 341 342 343 342 342 341 340 334
320 320 323 326 326 325 322 320 318 318 317 315 315 322 325 323 323 322 322 320 323 320 327 327 327 328 328 324 316 327 329 326 314 315 333 340 342 342 342 341 342 341 335
318 319 322 324 324 322 321 319 319 319 320 317 319 321 321 321 321 321 320 321 321 323 327 327 327 326 327 326 321 319 328 328 324 314 325 338 341 341 341 341 341 341 338
319 321 321 323 322 322 319 321 321 321 321 321 324 325 324 323 322 322 321 321 325 324 325 326 326 325 326 326 326 319 324 328 327 317 321 335 340 341 340 340 341 342 339
322 321 321 322 322 320 321 322 322 322 322 323 325 325 324 324 324 323 321 320 320 324 324 325 325 325 325 325 327 325 320 326 327 321 320 332 339 340 341 340 340 341 337
322 322 322 322 321 322 322 323 322 323 321 326 325 325 325 325 325 321 318 318 317 322 327 326 325 323 324 324 325 326 320 325 328 323 319 331 338 339 340 340 340 339 334
322 322 322 321 322 322 323 323 322 319 323 326 326 326 325 325 326 322 321 317 317 323 324 325 323 325 323 323 325 326 322 323 328 324 319 333 338 339 340 340 338 338 334
322 323 322 322 322 322 323 322 319 321 320 325 326 325 326 326 325 323 320 319 319 319 324 327 324 323 323 323 326 327 322 323 328 324 319 334 337 339 340 341 330 331 338
322 323 322 322 322 323 322 320 318 320 321 323 324 324 326 327 325 323 322 320 323 322 321 324 324 323 323 326 326 326 321 322 327 323 319 333 337 339 340 341 340 339 338
322 323 322 322 323 323 323 318 318 323 325 326 326 325 325 325 323 324 323 321 321 322 322 322 323 324 323 325 325 323 316 319 327 324 319 332 336 337 339 340 339 339 338
323 323 322 322 323 324 320 319 319 323 326 328 328 327 326 325 324 323 325 323 321 320 320 322 322 323 324 325 325 317 311 318 328 325 318 331 335 336 338 339 338 337 336
323 323 322 323 324 323 318 317 319 326 328 327 326 326 326 326 325 324 325 324 321 322 321 320 323 323 324 324 320 316 314 324 327 325 320 332 335 337 338 338 337 338 336
323 323 323 324 324 321 318 316 322 327 327 326 325 326 325 326 326 324 324 324 320 323 321 321 323 323 324 321 322 317 323 329 328 320 327 333 333 337 336 338 336 336 336
323 324 324 325 323 318 317 319 323 326 327 326 326 326 326 325 326 325 324 323 320 322 322 322 323 324 323 320 324 318 327 328 324 324 330 332 333 336 334 335 336 337 336
323 324 325 324 321 316 316 321 324 327 324 326 326 326 326 327 324 325 323 321 320 323 322 322 323 324 323 322 324 323 326 327 328 327 329 330 332 333 334 336 336 335 335
324 325 325 323 317 317 317 322 326 324 326 327 327 327 327 328 325 322 322 320 321 323 323 322 323 324 324 324 324 324 326 327 329 327 328 330 331 332 335 334 331 333 333
325 325 325 321 317 317 322 326 327 326 327 327 328 328 328 327 326 322 321 320 322 323 322 322 323 324 325 325 323 324 326 326 327 327 327 329 331 332 332 334 333 333 333
325 325 323 318 318 321 324 323 323 327 327 327 327 328 327 327 326 325 322 322 323 322 322 322 323 323 325 325 325 325 326 326 327 329 328 329 330 332 331 332 333 333 333
325 325 322 318 319 324 325 324 325 325 325 327 327 328 326 326 325 325 322 323 324 323 322 321 322 323 325 323 323 326 326 327 328 328 328 329 330 331 332 332 332 333 332
325 324 321 320 320 326 326 326 326 325 324 325 326 326 326 326 324 323 323 324 322 323 322 323 324 324 325 324 326 326 325 325 327 329 330 329 331 331 331 329 332 331 332
325 324 320 323 322 325 328 328 326 324 324 325 326 326 327 327 325 323 323 322 322 323 324 324 325 326 325 326 327 327 327 326 326 327 329 331 331 332 329 329 332 331 329
326 323 323 323 322 327 328 328 326 325 326 324 327 327 327 327 325 323 323 322 322 322 323 324 325 324 325 325 325 326 327 326 328 328 329 329 329 333 331 330 330 330 330
Wind_Speed
24 19 20 16 11 8 8 6 7 8 8 9 8 8 8 8 8 8 9 9 8 8 9 10 13 16 18 18 19 20 19 19 18 17 15 16 15 15 13 11 11 12 11
18 22 21 16 11 9 8 6 6 7 9 10 10 10 9 10 10 11 12 13 12 11 9 10 12 13 17 18 18 19 21 20 19 20 18 16 17 17 14 13 14 16 15
19 20 20 15 10 7 7 7 8 9 10 11 12 12 12 12 12 13 14 15 14 14 12 10 11 13 14 17 17 18 20 21 20 20 17 17 15 17 15 17 18 17 17
9 11 14 12 11 8 9 9 9 11 12 13 13 14 14 13 14 14 15 16 16 15 14 12 11 12 14 16 15 15 18 21 20 19 21 18 18 16 17 19 19 19 19
10 7 6 10 12 10 10 10 11 12 13 14 15 15 16 15 16 15 14 15 17 15 15 15 14 13 13 15 16 16 18 18 19 20 19 19 20 18 16 20 21 21 21
9 8 8 12 13 11 10 10 11 12 12 14 14 15 17 17 18 17 17 18 18 19 18 17 17 18 16 15 18 18 17 17 18 21 20 19 21 19 18 20 22 23 23
9 11 12 12 11 9 9 9 10 10 12 14 11 13 16 17 19 20 21 20 20 20 20 19 19 19 19 17 19 21 19 18 17 21 21 20 23 23 20 20 23 24 23
9 13 14 13 11 10 10 12 15 15 15 12 11 11 13 14 17 21 23 23 22 22 22 22 22 21 20 20 19 21 21 20 17 20 22 20 22 25 25 23 24 24 23
15 14 13 14 12 12 12 15 18 17 16 13 11 12 12 12 13 14 17 21 24 25 25 25 24 24 23 21 21 20 22 21 19 18 21 22 22 26 26 24 25 25 24
18 17 14 15 15 14 16 18 17 16 16 12 13 13 14 14 14 15 13 16 18 20 23 24 24 25 25 24 23 22 22 21 21 18 20 21 22 25 25 28 28 29 28
19 18 18 17 17 16 19 17 16 18 15 16 15 15 15 15 16 14 13 14 15 15 16 18 20 22 23 25 24 23 20 21 21 19 20 20 22 23 24 27 30 30 27
22 23 23 22 19 19 17 16 17 13 14 16 16 15 15 15 16 14 12 12 13 15 16 15 16 20 22 24 23 22 22 21 19 19 21 20 21 22 22 25 32 17 25
22 27 28 24 21 19 16 15 12 8 9 12 14 14 16 17 18 15 12 12 11 12 17 15 13 17 22 22 24 22 21 21 18 20 21 19 20 21 22 27 28 30 30
29 31 30 26 22 18 15 11 7 7 7 8 10 14 18 19 16 15 13 12 13 12 13 15 13 14 19 21 22 19 21 21 18 20 20 18 20 21 23 28 27 23 29
33 34 32 28 23 17 11 7 6 7 7 9 11 14 16 17 17 14 15 13 11 11 12 15 15 15 18 20 19 19 21 20 19 20 20 17 20 22 23 28 23 22 29
35 37 33 27 20 13 9 7 7 6 7 8 10 12 15 16 17 16 16 13 12 12 12 13 14 14 16 17 17 17 19 19 19 20 19 19 21 21 22 25 20 23 26
37 34 31 24 15 10 7 7 6 7 8 9 10 12 13 15 16 17 15 14 11 12 13 12 15 15 18 18 17 18 20 18 18 19 17 20 19 20 22 24 20 26 29
36 32 26 18 11 8 7 6 7 9 10 11 11 10 12 13 15 16 15 14 13 13 12 11 16 16 19 18 16 20 19 17 16 18 16 18 19 19 22 22 25 27 26
35 29 23 15 9 7 5 5 8 10 9 10 10 12 14 13 13 15 14 13 14 12 11 12 17 16 19 19 17 20 17 17 13 17 16 18 18 19 21 22 22 22 24
33 27 19 12 8 6 4 5 8 7 10 11 12 13 14 13 11 13 13 12 13 11 12 14 18 15 18 17 15 16 14 16 16 15 15 18 18 17 21 25 23 22 28
32 25 16 11 8 5 3 3 6 9 12 12 12 13 12 12 9 11 12 12 11 10 9 17 17 16 18 15 17 16 11 15 15 15 16 17 19 18 21 25 26 27 28
32 21 14 11 8 5 2 3 8 11 14 13 11 9 10 12 7 9 11 11 9 9 10 20 19 17 16 15 18 16 12 13 16 15 16 17 18 20 22 25 24 26 29
27 18 12 10 6 4 1 4 7 11 11 9 6 5 8 7 4 7 11 10 9 9 11 20 19 18 17 16 18 13 10 5 14 14 16 18 19 21 21 20 20 25 29
22 14 12 9 5 5 0 4 8 10 11 9 6 5 7 5 2 6 8 8 9 10 14 15 17 17 17 19 20 16 15 12 9 8 14 16 18 22 20 16 15 21 33
17 13 11 8 6 6 1 5 7 8 10 10 8 6 5 3 4 7 8 10 10 12 12 15 15 15 15 19 18 13 10 7 15 19 12 15 19 23 28 20 16 28 38
16 14 11 7 7 6 2 5 5 8 10 11 10 8 7 3 6 9 10 10 10 12 14 15 14 15 15 16 16 18 14 14 19 20 17 11 20 28 26 21 20 31 35
Wind_Direction
194 192 193 198 200 208 234 258 290 293 289 286 283 275 276 279 283 284 283 276 278 280 269 257 254 240 237 236 236 235 234 231 227 236 234 227 222 225 229 223 208 179 162
188 185 192 198 202 220 230 259 289 294 290 283 276 268 266 269 274 283 291 291 287 281 278 268 258 256 244 240 239 239 237 233 232 230 234 235 225 226 224 215 199 188 173
181 185 192 202 207 232 242 270 293 295 289 280 273 265 259 259 257 270 278 283 283 283 277 270 263 252 250 246 246 246 243 235 231 233 231 231 223 221 212 197 190 191 197
168 192 198 208 214 221 239 259 284 293 286 285 277 269 257 257 255 260 268 275 276 273 276 273 257 258 250 242 243 260 255 242 231 233 229 227 222 222 210 201 200 199 199
190 196 209 210 213 229 251 278 293 297 296 287 280 275 269 275 272 272 267 266 268 264 262 266 268 264 257 245 237 240 258 254 236 231 231 227 220 219 213 205 195 186 182
196 212 211 211 219 236 250 276 296 301 306 298 287 273 274 281 278 277 274 270 256 259 256 258 259 256 258 255 237 233 244 253 241 229 229 224 220 219 216 206 195 182 182
205 211 210 217 229 244 261 282 290 288 296 302 287 279 279 282 279 275 271 267 260 260 257 255 252 253 252 250 244 235 236 247 248 230 228 223 220 219 220 210 203 196 195
221 210 215 218 231 252 257 288 295 291 296 299 292 283 284 285 281 272 266 262 259 257 255 253 250 248 248 247 244 238 235 237 242 233 227 225 218 215 219 214 208 204 197
216 223 218 220 227 232 252 274 282 288 289 289 284 290 297 296 298 289 273 266 262 257 256 253 248 246 244 244 243 237 234 236 239 236 225 224 219 218 219 215 212 208 200
218 223 221 216 223 230 258 267 272 277 285 277 272 284 294 295 300 296 280 270 266 258 254 253 254 246 241 239 239 235 232 234 236 232 224 223 222 220 221 217 213 205 200
219 223 221 223 229 237 252 256 268 282 274 263 265 275 283 290 302 294 292 280 266 255 260 264 243 238 237 235 233 232 231 230 233 231 221 220 222 221 220 219 226 204 192
222 222 224 227 231 241 244 256 278 270 269 263 267 274 276 286 303 290 297 285 273 260 253 263 249 237 234 232 227 231 227 226 229 228 220 220 217 217 213 196 189 207 223
228 224 228 227 230 232 244 274 281 283 281 278 280 282 283 289 295 283 288 289 277 272 254 256 256 235 231 226 225 229 224 222 226 224 219 218 213 210 204 199 200 198 200
227 225 225 220 223 231 256 275 287 294 291 299 300 292 285 283 278 269 274 286 268 266 263 254 250 236 231 226 226 229 219 218 223 222 219 219 205 203 197 195 198 217 212
228 225 223 218 219 234 256 276 280 297 299 306 305 294 286 273 273 271 269 281 274 263 268 254 244 236 223 224 218 224 213 214 219 219 215 217 206 205 202 198 203 202 201
228 224 218 213 218 235 255 277 288 300 301 300 305 300 286 278 270 265 266 270 273 270 273 255 236 229 218 207 213 216 206 210 218 216 209 216 208 209 204 195 194 198 192
226 208 204 208 218 236 265 285 309 308 301 295 306 311 305 286 272 264 259 258 270 267 267 250 223 218 205 205 211 208 203 208 216 207 210 212 212 204 201 195 199 198 195
213 200 203 206 219 244 269 299 308 306 301 295 295 315 326 301 277 262 255 254 263 263 263 247 215 209 199 205 213 201 205 208 204 201 210 207 207 205 203 203 196 198 196
207 201 200 205 222 246 264 284 300 305 305 297 285 306 317 313 282 259 252 251 251 258 257 232 206 205 201 205 208 202 210 206 200 210 204 207 210 212 204 194 190 194 198
200 203 202 205 220 230 246 284 304 302 308 303 295 299 304 314 292 253 241 241 245 255 250 211 199 203 203 199 200 204 210 206 211 214 205 204 212 211 206 192 184 191 182
196 193 197 208 208 202 227 281 317 319 319 311 296 294 299 313 299 244 242 233 243 252 245 198 191 197 195 194 195 196 208 209 213 207 207 207 207 208 207 199 190 186 190
189 189 192 201 197 186 203 323 333 334 326 313 293 286 296 305 278 251 224 221 236 232 206 189 190 192 197 188 194 186 181 193 197 209 208 213 212 210 205 199 195 193 197
183 184 197 193 182 169 169 356 347 346 344 337 329 301 307 313 274 233 200 213 222 211 194 186 189 191 191 195 196 177 152 171 194 207 205 216 214 212 206 199 199 198 191
177 180 187 184 173 179 84 358 352 359 360 356 341 313 316 315 253 192 198 202 192 184 176 179 184 183 192 193 185 196 189 182 168 167 209 218 211 212 195 203 196 203 201
175 181 180 175 170 195 174 357 1 7 9 360 349 329 312 290 219 186 181 178 180 181 173 177 181 185 186 183 186 185 209 232 200 161 171 196 221 210 195 192 200 174 160
174 177 174 174 180 190 179 357 3 2 3 1 357 340 321 231 194 180 167 172 183 183 185 194 193 190 185 186 193 201 215 215 183 173 154 170 166 186 187 182 177 170 167